Weather History for Middleton, WI

Change the Weather History Date:

Monday, January 21, 2013

  Actual Average (KMSN) Record (KMSN)
Temperature  
Mean Temperature 6 °F 18 °F  
Max Temperature 11 °F 26 °F 52 °F (1964)
Min Temperature 0 °F 11 °F -29 °F (1888)
Degree Days  
Heating Degree Days 60 46  
Month to date heating degree days 975  
Since 1 July heating degree days 3854  
Cooling Degree Days 0 0  
Month to date cooling degree days 0  
Year to date cooling degree days 0  
Moisture  
Dew Point -8 °F    
Average Humidity 59    
Maximum Humidity 76    
Minimum Humidity 46    
Precipitation  
Precipitation 0.00 in 0.04 in 0.57 in (1895)
Month to date precipitation 0.84  
Year to date precipitation 0.84  
Snow  
Snow 0.00 in 0.40 in 7.20 in (2008)
Month to date snowfall 8.7  
Since 1 July snowfall 26.3  
Snow Depth -    
Sea Level Pressure  
Sea Level Pressure 30.18 in    
Wind  
Wind Speed 13 mph (WNW)    
Max Wind Speed 18 mph    
Max Gust Speed 25 mph    
Visibility 9 miles    
Events      
T = Trace of Precipitation, MM = Missing Value Source: NWS Daily Summary

Daily Weather History Graph

Daily Weather History Graph

Search for Another Location

Airport:

Trip Planner

Search our weather history database for the weather conditions in past years. The results will help you decide how hot, cold, wet, or windy it might be!

Date:

Astronomy

Jan. 21, 2013 Rise Set
Actual Time 7:23 AM CST 4:56 PM CST
Civil Twilight 6:52 AM CST 5:27 PM CST
Nautical Twilight 6:17 AM CST 6:02 PM CST
Astronomical Twilight 5:43 AM CST 6:35 PM CST
Moon 12:35 PM CST 2:51 AM CST
Length of Visible Light 10h 35m
Length of Day
9h 33m
Waxing Gibbous, 75% of the Moon is Illuminated
Jan 21
Waxing Gibbous
Jan 26
Full
Feb 3
Last Quarter
Feb 10
New
Feb 17
First Quarter

Hourly Weather History & Observations

Time (CST) Temp. Windchill Dew Point Humidity Pressure Visibility Wind Dir Wind Speed Gust Speed Precip Events Conditions
12:15 AM 11.8 °F -1.5 °F -0.6 °F 58% 30.15 in 10.0 mi WNW 10.4 mph 18.4 mph N/A   Overcast
12:35 AM 10.9 °F -3.4 °F -1.7 °F 57% 30.15 in 10.0 mi West 11.5 mph - N/A   Mostly Cloudy
12:55 AM 10.4 °F -4.8 °F -0.8 °F 61% 30.14 in 10.0 mi West 12.7 mph 17.3 mph N/A   Mostly Cloudy
1:15 AM 10.4 °F -4.8 °F -0.0 °F 63% 30.15 in 10.0 mi West 12.7 mph 18.4 mph N/A   Mostly Cloudy
1:35 AM 10.0 °F -5.2 °F 0.9 °F 66% 30.15 in 10.0 mi WNW 12.7 mph 19.6 mph N/A   Overcast
1:55 AM 9.0 °F -7.9 °F -4.2 °F 55% 30.15 in 10.0 mi WNW 15.0 mph 18.4 mph N/A   Overcast
2:15 AM 8.2 °F -8.2 °F -4.4 °F 57% 30.15 in 10.0 mi WNW 13.8 mph 18.4 mph N/A   Mostly Cloudy
2:35 AM 7.9 °F -5.5 °F -4.9 °F 56% 30.14 in 10.0 mi WNW 9.2 mph - N/A   Scattered Clouds
3:15 AM 6.8 °F -3.5 °F -4.4 °F 60% 30.13 in 10.0 mi WNW 5.8 mph - N/A   Scattered Clouds
3:55 AM 7.7 °F -4.8 °F -1.7 °F 66% 30.12 in 7.0 mi WNW 8.1 mph - N/A   Overcast
4:15 AM 7.7 °F -4.8 °F 0.3 °F 72% 30.11 in 4.0 mi WNW 8.1 mph - N/A   Overcast
4:35 AM 8.2 °F -3.0 °F 1.9 °F 76% 30.11 in 2.5 mi West 6.9 mph - N/A   Overcast
4:55 AM 7.7 °F -8.9 °F 0.3 °F 72% 30.11 in 4.0 mi West 13.8 mph - N/A   Overcast
5:15 AM 6.8 °F -11.8 °F -1.7 °F 68% 30.11 in 4.0 mi West 17.3 mph 20.7 mph N/A   Overcast
5:35 AM 5.9 °F -11.2 °F -2.2 °F 69% 30.12 in 3.0 mi West 13.8 mph 20.7 mph N/A   Overcast
5:55 AM 5.0 °F -12.3 °F -5.6 °F 62% 30.12 in 10.0 mi WNW 13.8 mph 23.0 mph N/A   Overcast
6:15 AM 4.1 °F -14.7 °F -5.6 °F 64% 30.13 in 7.0 mi WNW 16.1 mph - N/A   Overcast
6:35 AM 3.9 °F -14.3 °F -6.7 °F 61% 30.13 in 10.0 mi NW 15.0 mph 19.6 mph N/A   Overcast
6:55 AM 3.2 °F -13.9 °F -6.9 °F 63% 30.13 in 10.0 mi WNW 12.7 mph 17.3 mph N/A   Overcast
7:15 AM 2.7 °F -15.3 °F -6.9 °F 64% 30.14 in 10.0 mi WNW 13.8 mph 18.4 mph N/A   Overcast
7:35 AM 2.5 °F -15.5 °F -7.6 °F 63% 30.15 in 10.0 mi WNW 13.8 mph 18.4 mph N/A   Mostly Cloudy
7:55 AM 2.1 °F -16.6 °F -7.8 °F 63% 30.16 in 10.0 mi WNW 15.0 mph 20.7 mph N/A   Mostly Cloudy
8:15 AM 2.5 °F -15.5 °F -5.8 °F 68% 30.16 in 2.5 mi WNW 13.8 mph 18.4 mph N/A   Overcast
8:35 AM 2.1 °F -16.6 °F -7.4 °F 64% 30.17 in 4.0 mi WNW 15.0 mph - N/A   Overcast
8:55 AM 2.1 °F -16.0 °F -6.0 °F 69% 30.18 in 1.0 mi NW 13.8 mph 18.4 mph N/A   Overcast
9:15 AM 1.9 °F -16.9 °F -9.9 °F 58% 30.19 in 5.0 mi NW 15.0 mph 23.0 mph N/A   Mostly Cloudy
9:35 AM 1.6 °F -15.9 °F -6.5 °F 69% 30.19 in 1.2 mi WNW 12.7 mph - N/A   Overcast
9:55 AM 1.9 °F -14.7 °F -6.3 °F 68% 30.19 in 2.0 mi WNW 11.5 mph - N/A   Overcast
10:15 AM 3.2 °F -13.9 °F -7.6 °F 61% 30.19 in 4.0 mi West 12.7 mph - N/A   Overcast
10:35 AM 3.6 °F -14.8 °F -8.9 °F 56% 30.20 in 10.0 mi WNW 15.0 mph 19.6 mph N/A   Mostly Cloudy
10:55 AM 4.1 °F -12.7 °F -9.4 °F 54% 30.20 in 10.0 mi WNW 12.7 mph 19.6 mph N/A   Mostly Cloudy
11:15 AM 5.4 °F -13.7 °F -7.8 °F 55% 30.19 in 10.0 mi WNW 17.3 mph 21.9 mph N/A   Mostly Cloudy
11:35 AM 4.1 °F -14.1 °F -10.3 °F 51% 30.18 in 10.0 mi WNW 15.0 mph 20.7 mph N/A   Overcast
11:55 AM 5.0 °F -14.7 °F -9.4 °F 52% 30.18 in 10.0 mi WNW 18.4 mph 23.0 mph N/A   Overcast
12:15 PM 4.1 °F -14.1 °F -9.8 °F 53% 30.17 in 10.0 mi NW 15.0 mph 24.2 mph N/A   Overcast
12:35 PM 5.4 °F -13.1 °F -8.7 °F 52% 30.17 in 10.0 mi WNW 16.1 mph 24.2 mph N/A   Overcast
12:55 PM 4.5 °F -13.7 °F -10.1 °F 51% 30.17 in 10.0 mi NW 15.0 mph - N/A   Scattered Clouds
1:15 PM 5.5 °F -14.0 °F -9.0 °F 51% 30.16 in 10.0 mi WNW 18.4 mph 21.9 mph N/A   Mostly Cloudy
1:35 PM 5.9 °F -13.5 °F -9.9 °F 48% 30.16 in 10.0 mi WNW 18.4 mph 21.9 mph N/A   Mostly Cloudy
1:55 PM 6.1 °F -10.9 °F -10.1 °F 47% 30.16 in 10.0 mi NW 13.8 mph - N/A   Scattered Clouds
2:15 PM 6.4 °F -12.3 °F -10.7 °F 46% 30.16 in 10.0 mi WNW 17.3 mph 24.2 mph N/A   Scattered Clouds
2:55 PM 6.3 °F -12.5 °F -10.1 °F 47% 30.17 in 10.0 mi West 17.3 mph - N/A   Scattered Clouds
3:15 PM 5.9 °F -13.5 °F -10.5 °F 47% 30.17 in 10.0 mi West 18.4 mph 23.0 mph N/A   Mostly Cloudy
3:35 PM 5.2 °F -13.3 °F -11.0 °F 47% 30.17 in 10.0 mi WNW 16.1 mph 25.3 mph N/A   Scattered Clouds
3:55 PM 4.8 °F -14.9 °F -11.2 °F 48% 30.17 in 10.0 mi WNW 18.4 mph 21.9 mph N/A   Mostly Cloudy
4:15 PM 4.1 °F -15.9 °F -11.9 °F 48% 30.17 in 10.0 mi WNW 18.4 mph 23.0 mph N/A   Mostly Cloudy
4:35 PM 3.4 °F -13.6 °F -10.7 °F 52% 30.18 in 10.0 mi WNW 12.7 mph - N/A   Mostly Cloudy
4:55 PM 3.0 °F -14.8 °F -10.7 °F 53% 30.18 in 10.0 mi West 13.8 mph 18.4 mph N/A   Scattered Clouds
5:15 PM 2.7 °F -12.9 °F -10.8 °F 53% 30.19 in 10.0 mi WNW 10.4 mph - N/A   Clear
5:35 PM 2.5 °F -14.0 °F -11.2 °F 53% 30.19 in 10.0 mi WNW 11.5 mph - N/A   Clear
5:55 PM 2.3 °F -13.4 °F -11.2 °F 53% 30.19 in 10.0 mi West 10.4 mph - N/A   Clear
6:15 PM 2.1 °F -13.6 °F -11.2 °F 54% 30.20 in 10.0 mi WNW 10.4 mph - N/A   Clear
6:55 PM 1.9 °F -11.8 °F -10.5 °F 56% 30.20 in 10.0 mi WNW 8.1 mph - N/A   Clear
7:15 PM 1.4 °F -13.5 °F -10.5 °F 58% 30.20 in 10.0 mi WNW 9.2 mph - N/A   Clear
7:35 PM 1.4 °F -14.5 °F -10.5 °F 58% 30.21 in 10.0 mi WNW 10.4 mph - N/A   Clear
7:55 PM 1.4 °F -15.3 °F -11.0 °F 56% 30.21 in 10.0 mi WNW 11.5 mph - N/A   Clear
8:15 PM 1.4 °F -18.8 °F -11.4 °F 55% 30.21 in 10.0 mi WNW 17.3 mph 21.9 mph N/A   Clear
8:35 PM 1.2 °F -14.7 °F -11.2 °F 56% 30.22 in 10.0 mi WNW 10.4 mph - N/A   Clear
8:55 PM 0.7 °F -14.4 °F -10.5 °F 59% 30.22 in 10.0 mi WNW 9.2 mph - N/A   Clear
9:15 PM 1.0 °F -15.8 °F -10.5 °F 59% 30.23 in 10.0 mi WNW 11.5 mph 20.7 mph N/A   Clear
9:35 PM 0.7 °F -15.4 °F -10.3 °F 60% 30.23 in 10.0 mi WNW 10.4 mph - N/A   Clear
9:55 PM 0.5 °F -15.6 °F -10.3 °F 60% 30.24 in 10.0 mi WNW 10.4 mph - N/A   Scattered Clouds
10:15 PM 0.7 °F -12.1 °F -9.4 °F 63% 30.24 in 10.0 mi NW 6.9 mph - N/A   Overcast
10:35 PM 0.5 °F -15.6 °F -9.2 °F 64% 30.25 in 10.0 mi NW 10.4 mph 17.3 mph N/A   Overcast
10:55 PM 0.1 °F -16.0 °F -8.5 °F 67% 30.25 in 10.0 mi NW 10.4 mph - N/A   Overcast
11:15 PM 0.1 °F -15.1 °F -9.0 °F 65% 30.25 in 10.0 mi NNW 9.2 mph - N/A   Mostly Cloudy
11:35 PM -0.4 °F -15.7 °F -9.2 °F 66% 30.25 in 10.0 mi NNW 9.2 mph - N/A   Mostly Cloudy
11:55 PM -0.8 °F -16.2 °F -9.4 °F 67% 30.25 in 10.0 mi NNW 9.2 mph - N/A   Overcast